This demonstration page uses our WeatherBlox Daily Observations layout. Learn more.

Left ArrowRight Arrow

Hourly Observations for March 28, 2017

Temp ( °F °C ) Dew Point ( °F °C ) Humidity (%) Winds ( mph kmh ) Pressure ( in mb ) Visibility ( mi km ) Precip ( " mm )
12:28 am 00:28 Cloudy 52 11 48 9 88 88 N 6 9 29.97 1015 10 16 0.00 0.00
12:52 am 00:52 Cloudy 52 11.1 49 9.4 89 89 N 5 7 29.96 1014 10 16 0.00 0.00
1:00 am 01:00 Cloudy 52 11 48 9 88 88 NNW 5 7 29.97 1015 9 14 0.00 0.00
1:52 am 01:52 Cloudy 51 10.6 49 9.4 92 92 N 7 11 29.96 1015 8 13 0.00 0.00
2:52 am 02:52 Cloudy 51 10.6 49 9.4 92 92 NNW 6 9 29.97 1015 8 13 0.00 0.00
3:19 am 03:19 Cloudy with Mist and Fog 51 10.6 49 9.4 92 92 NNW 7 11 29.97 1015 5 8 0.00 0.00
3:52 am 03:52 Cloudy 51 10.6 49 9.4 92 92 NNE 7 11 29.96 1015 10 16 0.00 0.00
4:52 am 04:52 Cloudy 51 10.6 49 9.4 92 92 NNE 5 7 29.97 1015 10 16 0.00 0.00
5:27 am 05:27 Cloudy with Mist and Fog 51 10.6 49 9.4 92 92 NE 5 7 29.97 1015 6 10 0.00 0.00
5:52 am 05:52 Cloudy 50 10 49 9.4 96 96 Calm 30.00 1016 7 11 0.00 0.00
6:52 am 06:52 Cloudy 50 10 49 9.4 96 96 Calm 30.01 1016 7 11 0.00 0.00
7:38 am 07:38 Cloudy with Mist and Fog 52 11 48 9 88 88 NE 5 7 30.03 1017 4 6 0.00 0.00
7:52 am 07:52 Cloudy with Mist and Fog 51 10.6 49 9.4 92 92 ENE 3 6 30.02 1017 6 10 0.00 0.00
8:52 am 08:52 Cloudy 52 11.1 50 10 93 93 ESE 3 6 30.03 1017 10 16 0.00 0.00
9:52 am 09:52 Cloudy 54 12.2 50 10 87 87 ENE 7 11 30.03 1017 10 16 0.00 0.00
10:24 am 10:24 Cloudy 54 12 50 10 88 88 E 7 11 30.03 1017 10 16 0.00 0.00
10:50 am 10:50 Cloudy 55 13 50 10 82 82 ESE 8 13 30.06 1018 10 16 0.00 0.00
10:52 am 10:52 Cloudy 56 13.3 50 10 81 81 E 9 15 30.04 1017 10 16 0.00 0.00
11:52 am 11:52 Cloudy 57 13.9 49 9.4 74 74 SE 8 13 30.04 1017 10 16 0.00 0.00
12:52 pm 12:52 Cloudy 58 14.4 50 10 75 75 ESE 9 15 30.02 1017 10 16 0.00 0.00
1:52 pm 13:52 Cloudy 61 16.1 50 10 67 67 SE 7 11 29.99 1016 10 16 0.00 0.00
2:52 pm 14:52 Partly Cloudy 63 17.2 49 9.4 60 60 ESE 9 15 29.96 1015 10 16 0.00 0.00
3:52 pm 15:52 Sunny 67 19.4 51 10.6 57 57 E 10 17 29.92 1013 10 16 0.00 0.00
4:52 pm 16:52 Sunny 68 20 50 10 53 53 ESE 12 19 29.90 1013 10 16 0.00 0.00
5:52 pm 17:52 Sunny 67 19.4 50 10 55 55 E 13 20 29.90 1012 10 16 0.00 0.00
6:52 pm 18:52 Sunny 66 18.9 51 10.6 59 59 E 13 20 29.92 1013 10 16 0.00 0.00
7:52 pm 19:52 Clear 63 17.2 50 10 63 63 E 10 17 29.93 1014 10 16 0.00 0.00
8:52 pm 20:52 Clear 60 15.6 50 10 70 70 E 13 20 29.93 1014 10 16 0.00 0.00
9:52 pm 21:52 Clear 59 15 50 10 72 72 E 10 17 29.94 1014 10 16 0.00 0.00
10:52 pm 22:52 Clear 58 14.4 50 10 75 75 E 14 22 29.93 1014 10 16 0.00 0.00
11:52 pm 23:52 Clear 58 14.4 50 10 75 75 ESE 23 37 29.88 1012 10 16 0.00 0.00

Powered by AerisWeather